Location: Juzet
(42.9779°N, 0.7597°E)
Time: 01:36:08
(UTC+00:00)

CZ-4 R/B - Pass Details

Date: 14 July 2020
Orbit: 681 x 752 km, 98.5° (Epoch: 04 August)

Event Time Altitude Azimuth Distance (km) Brightness Sun altitude
Rises 00:02:43 0° 17° (NNE) 3,085 8.3 -25.4°
Reaches altitude 10° 00:05:00 10° 22° (NNE) 2,173 7.2 -25.4°
Enters shadow 00:09:36 56° 97° (E) 845 4.1 -25.4°
